星链-31202 (STARLINK-31202 )

导读

STARLINK-31202是美国SpaceX公司星链(Starlink)星座的成员卫星,于北京时间2024年2月25日发射入轨,属于星链星座组网扩展任务的一部分。星链是全球规模最大的低地球轨道卫星互联网星座,该卫星部署在近地轨道,旨在为全球提供高速宽带互联网服务,尤其覆盖偏远地区与网络基础设施薄弱区域。作为星链持续扩容的卫星之一,它助力提升星座网络容量与覆盖稳定性,推动SpaceX实现全球卫星互联网组网的战略目标。

基本信息
目录编号:
59042
目录名称:
STARLINK-31202
国际标识:
2024-038V
轨道中心:
EARTH
卫星名称:
星链-31202
卫星全名:
星链-31202 (STARLINK-31202 )
卫星状态:
在轨 (已飞行844 天)
发射日期:
2024-02-25 UTC
国别 :
美国 (US)
星等 :
--
轨道信息
数据来源 国际轨道数据 AOE轨道数据
星历时间 2026-06-17T01:34:42+0800
1天前
查看轨道信息
2026-06-15T06:00:00+0800
3天前
查看轨道信息
半长轴 6857.729km 6857.602km
偏心率 0.0002395 0.0002383
轨道倾角 43.001° 43.000°
近地点辐角 163.587° 150.498°
升交点赤经 183.536° 193.813°
平近点角 196.506° 284.947°
近地点 477.949km 477.83km
远地点 481.235km 481.1km
周期 94.195分钟 94.193分钟
每日圈数 15.287355 15.28778
详细信息
固有亮度:
5
最大亮度:
0.3
卫星平台:
Starlink v2.0 mini
覆盖范围:
全球
运营商:
太空探索技术公司
运营商所在国:
美国
制造商(研发单位):
太空探索技术公司
制造商所在国:
美国
使用方式:
暂无
卫星简介
星链(Starlink)计划是由太空探索技术公司(SpaceX)提出的一个巨型低轨卫星互联网星座项目,计划在2019年至2024年间在太空搭建由约1.2万颗卫星组成的“星链”网络,其中1584颗将部署在地球上空550千米处的近地轨道,并从2020年开始工作。该卫星仍在工作。
2D轨道图
3D轨道图
轨道高度分析图
轨道倾角分析图
轨道综合分析图
查看轨道综合分析图